This demonstration page uses our WeatherBlox Daily Observations layout. Learn more.

Left ArrowRight Arrow

Hourly Observations for June 27, 2017

Temp ( °F °C ) Dew Point ( °F °C ) Humidity (%) Winds ( mph kmh ) Pressure ( in mb ) Visibility ( mi km ) Precip ( " mm )
12:59 am 00:59 Partly Cloudy 72 22.2 59 15 64 64 S 5 7 30.04 1017 10 16 0.00 0.00
1:59 am 01:59 Partly Cloudy 72 22.2 59 15 64 64 S 6 9 30.01 1016 10 16 0.00 0.00
2:59 am 02:59 Partly Cloudy 72 22.2 59 15 64 64 S 5 7 30.01 1016 10 16 0.00 0.00
3:59 am 03:59 Mostly Clear 71 21.7 60 15.6 68 68 S 6 9 30.01 1016 10 16 0.00 0.00
4:59 am 04:59 Partly Cloudy 70 21.1 60 15.6 71 71 SSW 6 9 30.01 1016 10 16 0.00 0.00
5:59 am 05:59 Partly Cloudy 69 20.6 61 16.1 76 76 SSW 6 9 30.01 1016 10 16 0.00 0.00
6:59 am 06:59 Mostly Cloudy 73 22.8 63 17.2 71 71 SSW 6 9 30.02 1017 10 16 0.00 0.00
7:59 am 07:59 Mostly Cloudy 74 23.3 63 17.2 69 69 W 6 9 30.03 1017 10 16 0.00 0.00
8:59 am 08:59 Mostly Cloudy 77 25 62 16.7 60 60 NW 10 17 30.04 1017 10 16 0.00 0.00
9:59 am 09:59 Mostly Cloudy 80 26.7 60 15.6 51 51 N 9 15 30.03 1017 10 16 0.00 0.00
10:59 am 10:59 Mostly Cloudy 79 26.1 61 16.1 54 54 N 14 22 30.05 1018 10 16 0.00 0.00
11:59 am 11:59 Mostly Cloudy 80 26.7 60 15.6 51 51 NNE 12 19 30.05 1018 10 16 0.00 0.00
12:59 pm 12:59 Mostly Cloudy 81 27.2 59 15 47 47 NNE 9 15 30.04 1017 10 16 0.00 0.00
1:59 pm 13:59 Mostly Cloudy 80 26.7 58 14.4 47 47 E 6 9 30.02 1017 10 16 0.00 0.00
2:59 pm 14:59 Mostly Cloudy 81 27.2 61 16.1 51 51 NNE 8 13 30.02 1017 10 16 0.00 0.00
3:59 pm 15:59 Mostly Cloudy 82 27.8 56 13.3 41 41 NE 8 13 30.02 1017 10 16 0.00 0.00
4:59 pm 16:59 Mostly Cloudy 82 27.8 55 12.8 40 40 NE 7 11 30.00 1016 10 16 0.00 0.00
5:59 pm 17:59 Mostly Cloudy 78 25.6 56 13.3 47 47 E 7 11 30.00 1016 10 16 0.00 0.00
6:59 pm 18:59 Mostly Cloudy 77 25 58 14.4 52 52 VRB 6 9 30.00 1016 10 16 0.00 0.00
7:59 pm 19:59 Mostly Cloudy 76 24.4 61 16.1 60 60 Calm 30.01 1016 10 16 0.00 0.00
8:59 pm 20:59 Partly Cloudy 71 21.7 58 14.4 63 63 SSW 3 6 30.01 1016 10 16 0.00 0.00
9:59 pm 21:59 Mostly Clear 70 21.1 41 5 35 35 Calm 30.03 1017 10 16 0.00 0.00
10:59 pm 22:59 Mostly Clear 71 21.7 59 15 66 66 W 5 7 30.06 1018 10 16 0.00 0.00
11:59 pm 23:59 Mostly Clear 74 23.3 59 15 60 60 W 7 11 30.07 1018 10 16 0.00 0.00

Powered by AerisWeather